Weather History for Monument Pass, CO

Change the Weather History Date:

Saturday, February 2, 2013

  Actual Average (KAPA) Record (KAPA)
Temperature  
Mean Temperature 33 °F -  
Max Temperature 51 °F 41 °F 57 °F (2000)
Min Temperature 15 °F 19 °F -16 °F (2011)
Degree Days  
Heating Degree Days 32    
Moisture  
Dew Point 11 °F    
Average Humidity 52    
Maximum Humidity 86    
Minimum Humidity 12    
Precipitation  
Precipitation 0.00 in - - ()
Sea Level Pressure  
Sea Level Pressure 30.25 in    
Wind  
Wind Speed 8 mph (South)    
Max Wind Speed 18 mph    
Max Gust Speed 21 mph    
Visibility 10 miles    
Events      
Averages and records for this station are not official NWS values.
T = Trace of Precipitation, MM = Missing Value Source: NWS Daily Summary

Daily Weather History Graph

Daily Weather History Graph

Search for Another Location

Airport:

Trip Planner

Search our weather history database for the weather conditions in past years. The results will help you decide how hot, cold, wet, or windy it might be!

Date:

Astronomy

Feb. 02, 2013 Rise Set
Actual Time 7:04 AM MST 5:20 PM MST
Civil Twilight 6:36 AM MST 5:49 PM MST
Nautical Twilight 6:04 AM MST 6:21 PM MST
Astronomical Twilight 5:32 AM MST 6:52 PM MST
Moon No Moon Rise 10:19 AM MST (2/2)
Length of Visible Light 11h 13m
Length of Day
10h 16m
Waning Gibbous, 59% of the Moon is Illuminated
Feb 2
Waning Gibbous
Feb 3
Last Quarter
Feb 10
New
Feb 17
First Quarter
Feb 25
Full

Hourly Weather History & Observations

Time (MST) Temp. Windchill Dew Point Humidity Pressure Visibility Wind Dir Wind Speed Gust Speed Precip Events Conditions
12:15 AM 21.2 °F 16.4 °F 14.0 °F 74% 30.18 in 10.0 mi South 3.5 mph - N/A   Clear
12:35 AM 19.4 °F 14.3 °F 14.0 °F 80% 30.18 in 10.0 mi South 3.5 mph - N/A   Clear
12:54 AM 17.6 °F 12.3 °F 12.2 °F 79% 30.19 in 10.0 mi SE 3.5 mph - N/A   Clear
1:15 AM 17.6 °F 9.3 °F 14.0 °F 86% 30.19 in 10.0 mi South 5.8 mph - N/A   Clear
1:35 AM 19.4 °F 11.5 °F 14.0 °F 80% 30.20 in 10.0 mi South 5.8 mph - N/A   Clear
1:55 AM 17.6 °F 8.2 °F 14.0 °F 86% 30.20 in 10.0 mi SSE 6.9 mph - N/A   Clear
2:15 AM 17.6 °F 8.2 °F 14.0 °F 86% 30.21 in 10.0 mi South 6.9 mph - N/A   Clear
2:35 AM 19.4 °F 10.4 °F 14.0 °F 80% 30.21 in 10.0 mi SSE 6.9 mph - N/A   Clear
2:55 AM 17.6 °F 7.3 °F 12.2 °F 79% 30.22 in 10.0 mi South 8.1 mph - N/A   Clear
3:15 AM 15.8 °F 6.1 °F 12.2 °F 86% 30.22 in 10.0 mi South 6.9 mph - N/A   Clear
3:35 AM 17.6 °F 7.3 °F 14.0 °F 86% 30.22 in 10.0 mi South 8.1 mph - N/A   Clear
3:55 AM 19.4 °F 7.2 °F 14.0 °F 80% 30.22 in 10.0 mi SSW 11.5 mph - N/A   Clear
4:15 AM 19.4 °F 8.6 °F 12.2 °F 74% 30.22 in 10.0 mi SSW 9.2 mph - N/A   Clear
4:35 AM 21.2 °F 9.5 °F 14.0 °F 74% 30.22 in 10.0 mi SSW 11.5 mph - N/A   Clear
5:15 AM 21.2 °F 10.1 °F 14.0 °F 74% 30.23 in 10.0 mi SSW 10.4 mph - N/A   Clear
5:35 AM 21.2 °F 10.1 °F 14.0 °F 74% 30.23 in 10.0 mi SSW 10.4 mph - N/A   Clear
5:55 AM 21.2 °F 10.1 °F 14.0 °F 74% 30.23 in 10.0 mi SSW 10.4 mph - N/A   Clear
6:14 AM 21.2 °F 10.1 °F 14.0 °F 74% 30.23 in 10.0 mi SSW 10.4 mph - N/A   Clear
6:35 AM 23.0 °F 11.7 °F 15.8 °F 74% 30.23 in 10.0 mi SSW 11.5 mph - N/A   Clear
6:55 AM 21.2 °F 9.5 °F 15.8 °F 80% 30.23 in 10.0 mi SSW 11.5 mph - N/A   Clear
7:14 AM 21.2 °F 10.9 °F 15.8 °F 80% 30.24 in 10.0 mi SSW 9.2 mph - N/A   Clear
7:35 AM 23.0 °F 13.1 °F 15.8 °F 74% 30.25 in 10.0 mi SSW 9.2 mph - N/A   Clear
7:54 AM 24.8 °F 14.6 °F 17.6 °F 74% 30.25 in 10.0 mi South 10.4 mph - N/A   Clear
8:15 AM 26.6 °F 16.8 °F 19.4 °F 74% 30.26 in 10.0 mi South 10.4 mph - N/A   Clear
8:34 AM 28.4 °F 19.1 °F 19.4 °F 69% 30.26 in 10.0 mi SSW 10.4 mph - N/A   Clear
8:55 AM 32.0 °F 22.5 °F 19.4 °F 60% 30.26 in 10.0 mi SSW 12.7 mph - N/A   Clear
9:14 AM 32.0 °F 23.0 °F 19.4 °F 60% 30.26 in 10.0 mi SSW 11.5 mph - N/A   Clear
9:34 AM 33.8 °F 25.3 °F 19.4 °F 56% 30.26 in 10.0 mi SSW 11.5 mph - N/A   Clear
9:54 AM 35.6 °F 27.1 °F 17.6 °F 48% 30.26 in 10.0 mi SW 12.7 mph 17.3 mph N/A   Clear
10:14 AM 37.4 °F 30.3 °F 17.6 °F 45% 30.26 in 10.0 mi SSW 10.4 mph - N/A   Clear
10:34 AM 39.2 °F 34.2 °F 15.8 °F 39% 30.26 in 10.0 mi SW 6.9 mph - N/A   Clear
10:54 AM 42.8 °F 38.6 °F 15.8 °F 34% 30.26 in 10.0 mi SSW 6.9 mph - N/A   Clear
11:14 AM 42.8 °F 38.6 °F 14.0 °F 31% 30.25 in 10.0 mi SSW 6.9 mph - N/A   Clear
11:34 AM 46.4 °F 42.4 °F 8.6 °F 22% 30.24 in 10.0 mi West 8.1 mph - N/A   Clear
11:54 AM 48.2 °F - 8.6 °F 20% 30.24 in 10.0 mi West 8.1 mph - N/A   Clear
12:14 PM 50.0 °F - 5.0 °F 16% 30.23 in 10.0 mi West 6.9 mph - N/A   Clear
12:34 PM 50.0 °F - 6.8 °F 17% 30.23 in 10.0 mi West 8.1 mph - N/A   Clear
12:54 PM 50.0 °F - 3.2 °F 15% 30.23 in 10.0 mi NNW 11.5 mph - N/A   Clear
1:14 PM 51.8 °F - 1.4 °F 13% 30.22 in 10.0 mi NW 11.5 mph - N/A   Clear
1:34 PM 51.8 °F - -0.4 °F 12% 30.22 in 10.0 mi North 11.5 mph 19.6 mph N/A   Clear
1:54 PM 51.8 °F - 1.4 °F 13% 30.21 in 10.0 mi NNW 13.8 mph 19.6 mph N/A   Clear
2:15 PM 50.0 °F - -0.4 °F 13% 30.23 in 10.0 mi NNW 15.0 mph 19.6 mph N/A   Clear
2:35 PM 50.0 °F - -0.4 °F 13% 30.23 in 10.0 mi NNW 15.0 mph 18.4 mph N/A   Clear
2:55 PM 50.0 °F - 1.4 °F 14% 30.23 in 10.0 mi North 18.4 mph - N/A   Clear
3:15 PM 50.0 °F - 1.4 °F 14% 30.23 in 10.0 mi NNW 15.0 mph - N/A   Clear
3:35 PM 46.4 °F 39.8 °F 1.4 °F 16% 30.23 in 10.0 mi North 16.1 mph - N/A   Clear
3:55 PM 46.4 °F 41.1 °F 3.2 °F 17% 30.24 in 10.0 mi NNW 11.5 mph 20.7 mph N/A   Clear
4:15 PM 44.6 °F 38.8 °F 3.2 °F 18% 30.24 in 10.0 mi North 11.5 mph 16.1 mph N/A   Clear
4:35 PM 44.6 °F 40.2 °F 3.2 °F 18% 30.24 in 10.0 mi North 8.1 mph - N/A   Clear
4:54 PM 42.8 °F 38.6 °F 5.0 °F 21% 30.25 in 10.0 mi NNE 6.9 mph - N/A   Clear
5:15 PM 37.4 °F 32.1 °F 8.6 °F 30% 30.26 in 10.0 mi NE 6.9 mph - N/A   Clear
5:35 PM 33.8 °F 29.6 °F 10.4 °F 38% 30.27 in 10.0 mi East 4.6 mph - N/A   Clear
5:55 PM 33.8 °F 28.6 °F 8.6 °F 35% 30.28 in 10.0 mi East 5.8 mph - N/A   Clear
6:15 PM 32.0 °F 25.6 °F 10.4 °F 41% 30.29 in 10.0 mi East 6.9 mph - N/A   Clear
6:35 PM 30.2 °F 24.3 °F 12.2 °F 47% 30.30 in 10.0 mi ESE 5.8 mph - N/A   Clear
6:55 PM 32.0 °F 27.5 °F 10.4 °F 41% 30.30 in 10.0 mi East 4.6 mph - N/A   Clear
7:15 PM 30.2 °F 24.3 °F 10.4 °F 44% 30.31 in 10.0 mi SE 5.8 mph - N/A   Clear
7:35 PM 30.2 °F 25.4 °F 10.4 °F 44% 30.30 in 10.0 mi ESE 4.6 mph - N/A   Clear
7:55 PM 30.2 °F 24.3 °F 12.2 °F 47% 30.30 in 10.0 mi ESE 5.8 mph - N/A   Clear
8:15 PM 28.4 °F 23.3 °F 12.2 °F 51% 30.30 in 10.0 mi ESE 4.6 mph - N/A   Clear
8:34 PM 30.2 °F 26.7 °F 12.2 °F 47% 30.30 in 10.0 mi ESE 3.5 mph - N/A   Clear
8:54 PM 30.2 °F 25.4 °F 12.2 °F 47% 30.30 in 10.0 mi SE 4.6 mph - N/A   Clear
9:15 PM 28.4 °F 24.6 °F 12.2 °F 51% 30.30 in 10.0 mi ESE 3.5 mph - N/A   Clear
9:34 PM 26.6 °F 22.6 °F 12.2 °F 55% 30.29 in 10.0 mi SSE 3.5 mph - N/A   Clear
9:54 PM 23.0 °F 15.8 °F 14.0 °F 68% 30.29 in 10.0 mi SSW 5.8 mph - N/A   Clear
10:14 PM 21.2 °F 12.6 °F 14.0 °F 74% 30.29 in 10.0 mi South 6.9 mph - N/A   Clear
10:34 PM 23.0 °F 15.8 °F 14.0 °F 68% 30.28 in 10.0 mi South 5.8 mph - N/A   Clear
10:54 PM 21.2 °F 13.6 °F 14.0 °F 74% 30.28 in 10.0 mi South 5.8 mph - N/A   Clear
11:14 PM 23.0 °F 13.1 °F 14.0 °F 68% 30.27 in 10.0 mi South 9.2 mph - N/A   Clear
11:34 PM 23.0 °F 13.9 °F 14.0 °F 68% 30.26 in 10.0 mi South 8.1 mph - N/A   Clear
11:54 PM 24.8 °F 14.6 °F 14.0 °F 64% 30.25 in 10.0 mi South 10.4 mph - N/A   Clear